[[{"header":{"parameterUnit":"m.s-1","parameterCategory":2,"la1":30.2991,"la2":30.254,"lo1":-89.0895,"lo2":-89.0444,"dy":0.0017,"dx":0.0017,"nx":28,"ny":28,"refTime":"2023-04-23T21:00:00:Z","depth":"0","parameterNumber":2,"parameterNumberName":"U-component_of_CURRENTS"},"data":[0,0,0,0,0,0,0,0,0,0,0,0,0,0,0,0,0,0,0,0,0,0,0,0,0,0,0,0,0,0,0,0,0,0,0,0,0,0,0,0,0,0,0,0,0,0,0,0,0,0,0,0,0,0,0,0,0,0,-0.3439,-0.344,0,-0.3514,-0.3514,-0.3514,-0.3448,-0.3447,-0.3445,-0.3443,-0.3292,-0.329,-0.3288,0,0,0,0,0,0,0,0,0,0,0,0,0,-0.3099,-0.3105,-0.3439,-0.344,-0.3442,-0.3514,-0.3514,-0.3514,-0.3449,-0.3446,-0.3444,-0.3442,-0.3293,-0.329,-0.3287,0,0,0,0,0,0,0,0,0,0,0,0,0,-0.3209,-0.3107,-0.3438,-0.3425,-0.3425,-0.3514,-0.3514,-0.3514,-0.3449,-0.3446,-0.3444,-0.3441,-0.3294,-0.329,-0.3287,-0.3321,0,0,-0.3276,-0.3275,0,0,0,0,0,0,0,0,-0.3203,-0.322,-0.3425,-0.3426,-0.3427,-0.3477,-0.3339,-0.3441,-0.345,-0.343,-0.3443,-0.344,-0.3341,-0.3334,-0.3344,-0.3314,-0.3307,-0.3276,-0.3274,-0.3273,-0.3272,0,0,0,0,0,0,0,-0.3195,-0.3216,-0.3459,-0.3428,-0.3429,-0.3368,-0.3381,-0.3358,-0.3389,-0.3432,-0.3429,-0.3454,-0.3338,-0.3348,-0.3339,-0.3305,-0.3276,-0.3273,-0.3271,-0.327,-0.3301,-0.3304,0,0,0,0,0,0,-0.3217,-0.3211,-0.3456,-0.3462,-0.3316,-0.3378,-0.3392,-0.3456,-0.3394,-0.3386,-0.3456,-0.3451,-0.3355,-0.3343,-0.3333,-0.3343,-0.3273,-0.3269,-0.3267,-0.3298,-0.3302,-0.3305,0,0,0,0,0,0,-0.321,-0.324,-0.3454,-0.3341,-0.3366,-0.3389,-0.346,-0.3459,-0.3456,-0.3417,-0.3402,-0.3454,-0.3352,-0.3338,-0.3316,-0.3336,-0.3268,-0.3265,-0.3295,-0.3299,-0.3303,-0.3377,0,0,0,0,0,0,-0.3201,-0.3238,-0.3264,-0.3345,-0.3373,-0.3503,-0.3464,-0.3463,-0.3481,-0.3474,-0.341,-0.3394,-0.3349,-0.3322,-0.3312,-0.333,-0.3262,-0.3291,-0.3297,-0.3302,-0.3371,-0.3384,-0.3394,0,0,0,0,0,-0.3189,-0.3226,-0.3266,-0.3293,-0.342,-0.3505,-0.3512,-0.351,-0.3484,-0.3493,-0.3454,-0.3396,-0.335,-0.3321,-0.3309,-0.3327,-0.3288,-0.3295,-0.3302,-0.3366,-0.3381,-0.3394,0,0,0,0,0,0,-0.3064,-0.3228,-0.327,-0.335,-0.343,-0.3497,-0.3497,-0.3517,-0.35,-0.3474,-0.3422,-0.3405,-0.3406,-0.3367,-0.3337,-0.3361,-0.3315,-0.332,-0.3368,-0.3382,-0.3393,-0.3329,-0.3259,0,0,0,0,0,-0.3068,-0.3138,-0.3285,-0.3332,-0.3388,-0.3449,-0.3473,-0.3494,-0.3509,-0.3499,-0.3471,-0.3441,-0.3433,-0.3403,-0.3396,-0.339,-0.3317,-0.3403,-0.3415,-0.3424,-0.3371,-0.3296,-0.3293,-0.3327,-0.3326,-0.3326,0,0,-0.3019,-0.3121,-0.3153,-0.331,-0.3364,-0.3427,-0.3452,-0.3505,-0.3529,-0.3484,-0.3478,-0.3484,-0.345,-0.3458,-0.3453,-0.3413,-0.3392,-0.3433,-0.3441,-0.338,-0.3302,-0.3298,-0.3294,-0.3331,-0.333,-0.3329,0,0,-0.2951,-0.3074,-0.3111,-0.3197,-0.3318,-0.3386,-0.341,-0.351,-0.3528,-0.3562,-0.3542,-0.3553,-0.3537,-0.352,-0.3505,-0.3575,-0.3473,-0.3593,-0.3566,-0.3497,-0.3491,-0.3485,-0.3436,-0.3424,-0.3576,-0.3577,-0.3577,0,-0.2884,-0.2977,-0.312,-0.3183,-0.3229,-0.3371,-0.3401,-0.347,-0.3537,-0.3531,-0.356,-0.3556,-0.356,-0.353,-0.3576,-0.3594,-0.3532,-0.3511,-0.3504,-0.3496,-0.3488,-0.3438,-0.3425,-0.3581,-0.3581,-0.358,-0.358,0,-0.2859,-0.293,-0.2958,-0.3099,-0.3166,-0.3225,-0.337,-0.342,-0.3478,-0.3525,-0.3546,-0.3585,-0.3555,-0.3608,-0.3609,-0.3576,-0.3548,-0.3542,-0.3451,-0.3488,-0.3436,-0.342,-0.3587,-0.3586,-0.3584,-0.3583,0,0,-0.2738,-0.2907,-0.2916,-0.2964,-0.3133,-0.3196,-0.3252,-0.3341,-0.3353,-0.3448,-0.3428,-0.3504,-0.3528,-0.3516,-0.3551,-0.3516,-0.3478,-0.3502,-0.3496,-0.342,-0.3315,-0.3275,-0.3253,-0.3452,-0.3449,-0.3446,-0.3317,0,-0.2676,-0.2751,-0.2847,-0.29,-0.2969,-0.3094,-0.3139,-0.3223,-0.3304,-0.3339,-0.34,-0.3422,-0.3497,-0.3502,-0.3483,-0.3488,-0.343,-0.3512,-0.3316,-0.3309,-0.3241,-0.3231,-0.306,-0.2926,-0.3301,-0.3298,-0.3296,0,-0.2643,-0.2702,-0.2734,-0.2841,-0.2877,-0.2912,-0.2996,-0.3058,-0.3141,-0.3189,-0.321,-0.3276,-0.3289,-0.3351,-0.33,-0.3341,-0.331,-0.3309,-0.3303,-0.3203,-0.3235,-0.2944,-0.2881,-0.2874,-0.327,-0.3272,-0.3274,0,-0.2536,-0.2634,-0.2648,-0.2693,-0.2829,-0.2825,-0.2888,-0.2979,-0.3026,-0.3082,-0.3104,-0.3127,-0.3154,-0.3117,-0.3185,-0.3208,-0.3109,-0.3137,-0.3053,-0.3052,-0.283,-0.2814,-0.2692,-0.3021,-0.3022,-0.3022,-0.3023,0,-0.2481,-0.2497,-0.2599,-0.2621,-0.2626,-0.2741,-0.275,-0.2815,-0.2888,-0.2915,-0.3016,-0.3032,-0.309,-0.3088,-0.3105,-0.3042,-0.3035,-0.3008,-0.2993,-0.2864,-0.2853,-0.2775,-0.2819,-0.3017,-0.3018,-0.3019,-0.302,0,-0.2375,-0.2451,-0.2477,-0.2565,-0.2588,-0.259,-0.2681,-0.2696,-0.2783,-0.281,-0.2823,-0.293,-0.2922,-0.2977,-0.2935,-0.2937,-0.2825,-0.2853,-0.2723,-0.2694,-0.2601,-0.2656,-0.2468,-0.2404,-0.2699,-0.2697,-0.2695,0,-0.2327,-0.2332,-0.2405,-0.2411,-0.2441,-0.2474,-0.2498,-0.2615,-0.2639,-0.2749,-0.2741,-0.2774,-0.2773,-0.2735,-0.2711,-0.2659,-0.2705,-0.2497,-0.2508,-0.2531,-0.2581,-0.2628,-0.2592,-0.2266,-0.2261,-0.2257,-0.2253,0,-0.2212,-0.2234,-0.2256,-0.2265,-0.2282,-0.2314,-0.2358,-0.2377,-0.2504,-0.2527,-0.2551,-0.2554,-0.2539,-0.2432,-0.2412,-0.2375,-0.242,-0.2408,-0.2424,-0.2205,-0.2243,-0.2197,-0.2463,-0.2216,-0.2219,-0.2222,-0.2224,-0.2226,-0.21,-0.2079,-0.2104,-0.2102,-0.2125,-0.2132,-0.2103,-0.2167,-0.2182,-0.2195,-0.23,-0.2259,-0.2236,-0.2165,-0.214,-0.2031,-0.2127,-0.1977,-0.2035,-0.2078,-0.2016,-0.2226,-0.1983,-0.1986,-0.1988,-0.1989,-0.1991,0,-0.1957,-0.1953,-0.194,-0.1935,-0.1895,-0.1963,-0.1984,-0.1935,-0.1888,-0.1947,-0.1926,-0.1921,-0.1813,-0.1838,-0.175,-0.1687,-0.1653,-0.1677,-0.1675,-0.1652,-0.1787,-0.177,-0.1476,-0.1476,-0.1476,-0.1476,-0.1476,-0.1476,-0.1878,-0.1819,-0.1815,-0.1706,-0.1696,-0.1597,-0.1576,-0.1529,-0.1538,-0.1491,-0.1508,-0.1581,-0.1623,-0.1724,-0.1621,-0.1539,-0.1541,-0.1461,-0.1566,-0.1661,-0.1694,-0.1725,-0.1718,-0.1418,-0.1418,-0.1315,-0.1314,-0.1314]},{"header":{"parameterUnit":"m.s-1","parameterCategory":2,"la1":30.2991,"la2":30.254,"lo1":-89.0895,"lo2":-89.0444,"dy":0.0017,"dx":0.0017,"nx":28,"ny":28,"refTime":"2023-04-23T21:00:00:Z","depth":"0","parameterNumber":3,"parameterNumberName":"V-component_of_CURRENTS"},"data":[0,0,0,0,0,0,0,0,0,0,0,0,0,0,0,0,0,0,0,0,0,0,0,0,0,0,0,0,0,0,0,0,0,0,0,0,0,0,0,0,0,0,0,0,0,0,0,0,0,0,0,0,0,0,0,0,0,0,-0.018,-0.0178,0,-0.0012,-0.001,-0.0008,0.006,0.006,0.0059,0.0059,0.0139,0.0141,0.0143,0,0,0,0,0,0,0,0,0,0,0,0,0,-0.0352,-0.035,-0.018,-0.0178,-0.0175,-0.0012,-0.001,-0.0008,0.006,0.006,0.0059,0.0059,0.0138,0.0141,0.0144,0,0,0,0,0,0,0,0,0,0,0,0,0,-0.0243,-0.0349,-0.0181,-0.012,-0.0113,-0.0012,-0.001,-0.0007,0.006,0.006,0.0059,0.0059,0.0137,0.0141,0.0144,0.017,0,0,0.0154,0.0156,0,0,0,0,0,0,0,0,-0.0249,-0.0237,-0.0131,-0.0124,-0.0116,0.0005,-0.0041,0.0048,0.006,-0.0008,0.0059,0.0059,0.0088,0.0095,0.0125,0.0174,0.0177,0.0155,0.0157,0.0158,0.0159,0,0,0,0,0,0,0,-0.0257,-0.0243,-0.0116,-0.0129,-0.0119,-0.007,-0.0056,-0.0023,0.0035,-0.0002,0.0003,0.0026,0.0091,0.0122,0.0127,0.0178,0.0155,0.0158,0.016,0.0161,0.0233,0.0233,0,0,0,0,0,0,-0.0277,-0.0251,-0.0121,-0.0111,-0.0181,-0.0067,-0.0051,-0.0036,0.0037,0.005,0.0026,0.0029,0.0116,0.0123,0.013,0.0154,0.0158,0.0161,0.0163,0.0233,0.0233,0.0233,0,0,0,0,0,0,-0.0281,-0.0267,-0.0128,-0.0174,-0.0153,-0.0064,-0.0047,-0.0032,-0.0005,0.0061,0.0071,0.0038,0.0116,0.0125,0.0162,0.0157,0.0163,0.0166,0.0233,0.0233,0.0233,0.0207,0,0,0,0,0,0,-0.0287,-0.027,-0.0275,-0.0176,-0.0151,-0.0086,-0.0046,-0.0029,0.0012,0.0016,0.0074,0.0082,0.0117,0.0157,0.0165,0.0162,0.0169,0.0233,0.0233,0.0233,0.0208,0.0206,0.0204,0,0,0,0,0,-0.0294,-0.0306,-0.0276,-0.0261,-0.0158,-0.0086,-0.0069,-0.0008,0.0012,0.0017,0.0066,0.008,0.016,0.016,0.017,0.0168,0.0233,0.0233,0.0233,0.0209,0.0207,0.0205,0,0,0,0,0,0,-0.0385,-0.0296,-0.0263,-0.0247,-0.0177,-0.0074,-0.0066,-0.0014,0.0033,0.003,0.009,0.0101,0.013,0.015,0.0148,0.0185,0.0194,0.0196,0.0173,0.0171,0.0169,0.0134,0.0172,0,0,0,0,0,-0.0406,-0.0393,-0.0292,-0.0282,-0.0253,-0.016,-0.0125,-0.0078,-0.0015,0.0006,0.0054,0.0096,0.0139,0.0155,0.0191,0.0214,0.0224,0.0215,0.0213,0.0211,0.0188,0.022,0.0219,0.0232,0.0232,0.0232,0,0,-0.0437,-0.0388,-0.038,-0.0301,-0.0246,-0.0215,-0.0142,-0.0097,-0.0072,0.0005,0.0035,0.0093,0.0144,0.0177,0.0189,0.0191,0.0212,0.021,0.0209,0.0186,0.022,0.0219,0.0217,0.0231,0.0231,0.0231,0,0,-0.0493,-0.0452,-0.0457,-0.0408,-0.0328,-0.0267,-0.0258,-0.0157,-0.0119,-0.0068,-0.0005,0.0056,0.0105,0.0161,0.0191,0.0197,0.0204,0.0194,0.0155,0.0187,0.0186,0.0185,0.0194,0.0194,0.0189,0.0189,0.0189,0,-0.0537,-0.0522,-0.0448,-0.0437,-0.0406,-0.0299,-0.0292,-0.0234,-0.0133,-0.0106,-0.0077,0.0035,0.01,0.015,0.0165,0.0194,0.0193,0.0164,0.0184,0.0184,0.0184,0.0193,0.0193,0.0188,0.0188,0.0188,0.0188,0,-0.0584,-0.0575,-0.0576,-0.0529,-0.0489,-0.0467,-0.0372,-0.0333,-0.027,-0.0202,-0.0136,-0.003,0.0031,0.0073,0.0128,0.0159,0.0153,0.0183,0.0189,0.0181,0.0191,0.0192,0.0186,0.0186,0.0187,0.0187,0,0,-0.0665,-0.0621,-0.062,-0.0617,-0.0535,-0.0507,-0.0474,-0.0403,-0.0385,-0.0285,-0.0258,-0.013,-0.0066,-0.0029,0.0056,0.0103,0.0137,0.0133,0.0135,0.0137,0.0175,0.0274,0.0285,0.0162,0.0162,0.0162,0.0182,0,-0.072,-0.074,-0.069,-0.0702,-0.07,-0.061,-0.0587,-0.0515,-0.0439,-0.0389,-0.0267,-0.0209,-0.011,-0.0071,-0.0007,0.0104,0.0137,0.0127,0.0184,0.0185,0.0273,0.029,0.0339,0.037,0.0183,0.0183,0.0183,0,-0.0772,-0.0779,-0.0808,-0.0787,-0.0778,-0.0768,-0.0716,-0.0679,-0.0582,-0.0525,-0.0445,-0.0352,-0.0245,-0.0168,-0.0016,-0.0037,0.0052,0.0136,0.0139,0.0236,0.0288,0.0349,0.0379,0.0535,0.0185,0.0185,0.0185,0,-0.0857,-0.0856,-0.0889,-0.088,-0.0839,-0.0837,-0.081,-0.0726,-0.07,-0.0615,-0.0588,-0.0463,-0.0391,-0.0271,-0.0059,-0.0059,0.0095,0.0118,0.0279,0.0285,0.0342,0.0355,0.0528,0.0192,0.0192,0.0192,0.0192,0,-0.0924,-0.0946,-0.0937,-0.0952,-0.0987,-0.0928,-0.0941,-0.0888,-0.0826,-0.0797,-0.0669,-0.0609,-0.0414,-0.028,-0.0119,0.01,0.0049,0.0267,0.0305,0.0337,0.0348,0.0498,0.0548,0.0193,0.0193,0.0193,0.0193,0,-0.0993,-0.0989,-0.1026,-0.1022,-0.1026,-0.1049,-0.103,-0.103,-0.0962,-0.0925,-0.0904,-0.0733,-0.0538,-0.0331,-0.0111,0.004,0.0337,0.0313,0.0335,0.0377,0.0674,0.0719,0.0885,0.0984,0.0463,0.0466,0.0468,0,-0.1024,-0.1054,-0.1089,-0.1119,-0.1118,-0.1145,-0.1154,-0.1104,-0.1094,-0.0974,-0.0959,-0.0774,-0.0589,-0.0231,0.0059,0.0334,0.0451,0.0521,0.0556,0.0705,0.0781,0.0805,0.0876,0.0605,0.0608,0.0611,0.0613,0,-0.1078,-0.1092,-0.1127,-0.1194,-0.1228,-0.1263,-0.1271,-0.1282,-0.1202,-0.1135,-0.0986,-0.0829,-0.0456,-0.0079,0.0284,0.0448,0.065,0.0586,0.0734,0.0907,0.0945,0.1054,0.0557,0.0637,0.0634,0.0633,0.0631,0.063,-0.1109,-0.1155,-0.1202,-0.1261,-0.1308,-0.1346,-0.1358,-0.1329,-0.1284,-0.1131,-0.099,-0.07,-0.0194,0.0355,0.055,0.0941,0.0873,0.1043,0.1078,0.1084,0.1215,0.0774,0.0915,0.0914,0.0914,0.0913,0.0912,0,-0.1137,-0.119,-0.1256,-0.1326,-0.1378,-0.1384,-0.1403,-0.1369,-0.1277,-0.1087,-0.0879,-0.0299,0.021,0.065,0.1209,0.142,0.1447,0.1495,0.1525,0.1572,0.1179,0.1227,0.145,0.145,0.145,0.1449,0.1449,0.1449,-0.1154,-0.1223,-0.126,-0.1354,-0.1399,-0.1425,-0.1422,-0.1333,-0.119,-0.0832,-0.0494,-0.0213,0.0406,0.1288,0.1789,0.1824,0.1985,0.1958,0.2045,0.1763,0.1722,0.1683,0.1744,0.2072,0.2072,0.2431,0.2435,0.2437]}],[{"header":{"parameterUnit":"m.s-1","parameterCategory":2,"la1":30.2991,"la2":30.254,"lo1":-89.0895,"lo2":-89.0444,"dy":0.0017,"dx":0.0017,"nx":28,"ny":28,"refTime":"2023-04-23T21:00:00:Z","depth":"2","parameterNumber":2,"parameterNumberName":"U-component_of_CURRENTS"},"data":[0,0,0,0,0,0,0,0,0,0,0,0,0,0,0,0,0,0,0,0,0,0,0,0,0,0,0,0,0,0,0,0,0,0,0,0,0,0,0,0,0,0,0,0,0,0,0,0,0,0,0,0,0,0,0,0,0,0,-0.2778,-0.278,0,-0.2914,-0.2915,-0.2916,-0.2986,-0.2986,-0.2987,-0.2987,-0.3043,-0.3044,-0.3045,0,0,0,0,0,0,0,0,0,0,0,0,0,-0.2587,-0.259,-0.2778,-0.278,-0.2782,-0.2913,-0.2915,-0.2917,-0.2986,-0.2986,-0.2987,-0.2987,-0.3042,-0.3044,-0.3045,0,0,0,0,0,0,0,0,0,0,0,0,0,-0.2689,-0.2591,-0.2778,-0.2834,-0.2841,-0.2913,-0.2915,-0.2917,-0.2986,-0.2986,-0.2987,-0.2987,-0.3042,-0.3043,-0.3045,-0.3046,0,0,-0.3051,-0.3051,0,0,0,0,0,0,0,0,-0.2683,-0.2695,-0.2824,-0.2831,-0.2838,-0.2936,-0.2868,-0.2957,-0.2986,-0.2928,-0.2987,-0.2988,-0.3001,-0.3006,-0.3028,-0.3049,-0.3051,-0.3051,-0.3052,-0.3053,-0.3053,0,0,0,0,0,0,0,-0.2676,-0.269,-0.2829,-0.2826,-0.2835,-0.2856,-0.287,-0.2886,-0.2956,-0.2933,-0.2939,-0.2958,-0.3004,-0.3026,-0.3029,-0.3052,-0.3051,-0.3052,-0.3053,-0.3054,-0.3206,-0.3209,0,0,0,0,0,0,-0.2664,-0.2683,-0.2825,-0.2833,-0.2763,-0.2859,-0.2875,-0.2902,-0.2958,-0.2969,-0.2958,-0.2961,-0.3023,-0.3027,-0.3031,-0.3087,-0.3053,-0.3054,-0.3055,-0.3203,-0.3207,-0.321,0,0,0,0,0,0,-0.2659,-0.2676,-0.2819,-0.2763,-0.2783,-0.2862,-0.2891,-0.2904,-0.2946,-0.2978,-0.2987,-0.2988,-0.3023,-0.3029,-0.311,-0.3087,-0.3055,-0.3057,-0.32,-0.3204,-0.3208,-0.3165,0,0,0,0,0,0,-0.2653,-0.2673,-0.2684,-0.2762,-0.2786,-0.2881,-0.2892,-0.2907,-0.2957,-0.2963,-0.3006,-0.3012,-0.3024,-0.3108,-0.3112,-0.3089,-0.3058,-0.3196,-0.3202,-0.3207,-0.3162,-0.3167,-0.3171,0,0,0,0,0,-0.2646,-0.2662,-0.2683,-0.27,-0.28,-0.2882,-0.2897,-0.2951,-0.2958,-0.2987,-0.3047,-0.3011,-0.3145,-0.3113,-0.3117,-0.3093,-0.3193,-0.32,-0.3207,-0.316,-0.3166,-0.3171,0,0,0,0,0,0,-0.2583,-0.2673,-0.2698,-0.274,-0.2814,-0.2896,-0.2915,-0.2958,-0.3026,-0.3027,-0.3059,-0.307,-0.3136,-0.3143,-0.3107,-0.3165,-0.3158,-0.3166,-0.3122,-0.3127,-0.3132,-0.3076,-0.306,0,0,0,0,0,-0.2574,-0.2605,-0.2702,-0.2732,-0.2765,-0.284,-0.2877,-0.2923,-0.2994,-0.3024,-0.3068,-0.3114,-0.3163,-0.3171,-0.3226,-0.3245,-0.3204,-0.3238,-0.3242,-0.3245,-0.3211,-0.315,-0.3142,-0.3232,-0.3232,-0.3232,0,0,-0.2552,-0.2606,-0.2622,-0.2719,-0.2768,-0.2817,-0.2863,-0.2924,-0.296,-0.3015,-0.3078,-0.3142,-0.3187,-0.3234,-0.3257,-0.3229,-0.321,-0.3254,-0.3255,-0.3218,-0.3155,-0.3145,-0.3136,-0.3236,-0.3236,-0.3235,0,0,-0.2525,-0.2577,-0.2596,-0.2658,-0.2745,-0.28,-0.2822,-0.2924,-0.2964,-0.3052,-0.31,-0.3163,-0.3238,-0.3257,-0.3274,-0.3334,-0.3258,-0.3351,-0.3286,-0.3227,-0.3216,-0.3206,-0.3164,-0.315,-0.3322,-0.3322,-0.3322,0,-0.2492,-0.2538,-0.2615,-0.2654,-0.2692,-0.2791,-0.2822,-0.288,-0.3001,-0.3015,-0.3072,-0.3181,-0.3238,-0.3242,-0.3288,-0.333,-0.3289,-0.3248,-0.3222,-0.3211,-0.3201,-0.3159,-0.3144,-0.3321,-0.3321,-0.3321,-0.3321,0,-0.2486,-0.2527,-0.2542,-0.2619,-0.2674,-0.272,-0.2813,-0.2867,-0.2933,-0.2983,-0.3046,-0.3145,-0.319,-0.3228,-0.3281,-0.324,-0.3234,-0.3248,-0.318,-0.3187,-0.3147,-0.3131,-0.3319,-0.3319,-0.332,-0.332,0,0,-0.2399,-0.2514,-0.2516,-0.255,-0.2659,-0.2706,-0.2751,-0.2815,-0.2832,-0.2931,-0.2941,-0.3051,-0.3088,-0.3114,-0.3171,-0.3131,-0.3073,-0.3153,-0.3151,-0.3061,-0.2933,-0.289,-0.2869,-0.3057,-0.3054,-0.3052,-0.2938,0,-0.2368,-0.2423,-0.2488,-0.2535,-0.2577,-0.266,-0.2701,-0.2763,-0.2831,-0.2876,-0.292,-0.2982,-0.3043,-0.3081,-0.3045,-0.3098,-0.3028,-0.3102,-0.2984,-0.298,-0.2897,-0.2848,-0.2653,-0.2529,-0.2923,-0.292,-0.2918,0,-0.2338,-0.2383,-0.242,-0.2509,-0.253,-0.2565,-0.2625,-0.2678,-0.2734,-0.2786,-0.2801,-0.2868,-0.2871,-0.2931,-0.2883,-0.2922,-0.2909,-0.2918,-0.2914,-0.2863,-0.2906,-0.2589,-0.2486,-0.2893,-0.2895,-0.2897,-0.2898,0,-0.2251,-0.2334,-0.2358,-0.239,-0.2501,-0.251,-0.2562,-0.263,-0.2666,-0.2715,-0.2747,-0.2746,-0.2785,-0.2738,-0.2802,-0.2823,-0.2738,-0.2768,-0.2687,-0.2686,-0.2489,-0.2475,-0.2662,-0.2662,-0.2662,-0.2663,-0.2663,0,-0.2204,-0.2221,-0.2318,-0.2334,-0.2353,-0.2449,-0.2466,-0.2523,-0.2588,-0.2609,-0.2685,-0.2699,-0.2736,-0.2726,-0.2734,-0.2667,-0.2666,-0.2639,-0.2631,-0.248,-0.2466,-0.2765,-0.2779,-0.2658,-0.2659,-0.266,-0.2661,0,-0.2107,-0.2178,-0.2206,-0.2293,-0.2318,-0.2325,-0.2413,-0.243,-0.2512,-0.2538,-0.2553,-0.264,-0.2626,-0.2648,-0.2614,-0.2589,-0.2538,-0.2505,-0.2344,-0.2318,-0.2535,-0.2549,-0.2362,-0.2359,-0.2356,-0.2354,-0.2352,0,-0.2064,-0.2071,-0.2144,-0.2154,-0.2187,-0.2224,-0.2252,-0.2364,-0.2388,-0.2494,-0.2491,-0.2523,-0.2506,-0.2452,-0.241,-0.2336,-0.2449,-0.2131,-0.2131,-0.2481,-0.2493,-0.2511,-0.2528,-0.1866,-0.186,-0.1856,-0.1852,0,-0.1963,-0.1985,-0.201,-0.2028,-0.2052,-0.2083,-0.2134,-0.2153,-0.2276,-0.2301,-0.2326,-0.2321,-0.2298,-0.2151,-0.2106,-0.2051,-0.2132,-0.2035,-0.2382,-0.1999,-0.2011,-0.2025,-0.2057,-0.1811,-0.1815,-0.1818,-0.1821,-0.1822,-0.1865,-0.185,-0.1879,-0.1884,-0.1915,-0.1925,-0.1898,-0.1963,-0.1979,-0.1992,-0.209,-0.2022,-0.2033,-0.185,-0.1765,-0.1714,-0.1861,-0.1785,-0.1799,-0.1818,-0.1807,-0.1816,-0.1579,-0.1581,-0.1584,-0.1586,-0.1587,0,-0.174,-0.1742,-0.1736,-0.1738,-0.171,-0.1775,-0.1798,-0.1749,-0.1706,-0.1749,-0.1724,-0.1571,-0.1477,-0.1506,-0.1347,-0.1326,-0.1314,-0.1285,-0.1264,-0.1304,-0.134,-0.1306,-0.0943,-0.0942,-0.094,-0.0938,0,0,-0.167,-0.1623,-0.1622,-0.1534,-0.153,-0.1444,-0.1423,-0.1374,-0.1366,-0.1293,-0.1258,-0.1366,-0.1435,-0.1186,-0.1132,-0.1006,-0.1143,-0.0955,-0.1467,-0.1479,-0.1513,-0.1618,-0.161,0,0,0,0,0]},{"header":{"parameterUnit":"m.s-1","parameterCategory":2,"la1":30.2991,"la2":30.254,"lo1":-89.0895,"lo2":-89.0444,"dy":0.0017,"dx":0.0017,"nx":28,"ny":28,"refTime":"2023-04-23T21:00:00:Z","depth":"2","parameterNumber":3,"parameterNumberName":"V-component_of_CURRENTS"},"data":[0,0,0,0,0,0,0,0,0,0,0,0,0,0,0,0,0,0,0,0,0,0,0,0,0,0,0,0,0,0,0,0,0,0,0,0,0,0,0,0,0,0,0,0,0,0,0,0,0,0,0,0,0,0,0,0,0,0,-0.0127,-0.0125,0,0.0034,0.0035,0.0037,0.0124,0.0125,0.0125,0.0125,0.0253,0.0256,0.026,0,0,0,0,0,0,0,0,0,0,0,0,0,-0.0277,-0.0276,-0.0127,-0.0125,-0.0123,0.0033,0.0035,0.0038,0.0124,0.0125,0.0125,0.0125,0.0252,0.0256,0.026,0,0,0,0,0,0,0,0,0,0,0,0,0,-0.0175,-0.0275,-0.0127,-0.006,-0.0052,0.0033,0.0035,0.0038,0.0124,0.0125,0.0125,0.0126,0.0251,0.0256,0.026,0.028,0,0,0.0275,0.0277,0,0,0,0,0,0,0,0,-0.0181,-0.017,-0.0072,-0.0064,-0.0056,0.006,0.003,0.0118,0.0124,0.0056,0.0125,0.0126,0.0186,0.0196,0.0224,0.0286,0.0292,0.0275,0.0278,0.028,0.0281,0,0,0,0,0,0,0,-0.0189,-0.0176,-0.0064,-0.007,-0.006,-0.001,0.0004,0.0047,0.0115,0.0062,0.0069,0.0088,0.019,0.022,0.0228,0.0294,0.0275,0.0279,0.0282,0.0284,0.039,0.039,0,0,0,0,0,0,-0.0211,-0.0183,-0.0069,-0.0059,-0.0117,-0.0008,0.0008,0.0022,0.0116,0.0131,0.0088,0.0092,0.0211,0.0222,0.0233,0.0256,0.028,0.0284,0.0287,0.039,0.039,0.039,0,0,0,0,0,0,-0.0215,-0.0202,-0.0076,-0.0116,-0.0097,-0.0006,0.0009,0.0025,0.0055,0.0136,0.015,0.0102,0.0212,0.0226,0.0281,0.0262,0.0286,0.0291,0.039,0.039,0.039,0.0306,0,0,0,0,0,0,-0.022,-0.0205,-0.0209,-0.0118,-0.0095,-0.004,0.0009,0.0028,0.0067,0.0074,0.0153,0.0165,0.0214,0.0274,0.0286,0.0269,0.0294,0.039,0.039,0.039,0.0309,0.0303,0.0299,0,0,0,0,0,-0.0226,-0.0236,-0.021,-0.0197,-0.0102,-0.0041,-0.0025,0.0041,0.0067,0.0071,0.0139,0.0163,0.0282,0.0278,0.0292,0.0276,0.039,0.039,0.039,0.0311,0.0305,0.0299,0,0,0,0,0,0,-0.0304,-0.0225,-0.0196,-0.0181,-0.0122,-0.0026,-0.0016,0.0033,0.0092,0.0096,0.0173,0.0191,0.0231,0.0268,0.0262,0.0307,0.0335,0.0338,0.0271,0.0265,0.026,0.0237,0.0298,0,0,0,0,0,-0.0323,-0.0313,-0.0225,-0.0217,-0.0193,-0.0107,-0.0075,-0.0028,0.004,0.0067,0.0127,0.0187,0.0241,0.0265,0.0317,0.0342,0.038,0.0339,0.0333,0.0329,0.0321,0.0372,0.037,0.039,0.039,0.039,0,0,-0.0352,-0.0308,-0.0301,-0.0234,-0.0185,-0.0158,-0.0088,-0.0049,-0.0025,0.0069,0.0108,0.0173,0.0247,0.0283,0.0301,0.031,0.0342,0.0329,0.0324,0.0319,0.0372,0.037,0.0368,0.039,0.039,0.039,0,0,-0.0402,-0.0366,-0.037,-0.0328,-0.026,-0.0205,-0.0199,-0.0109,-0.0071,-0.0018,0.0056,0.0117,0.0188,0.0247,0.0283,0.028,0.0318,0.0283,0.0233,0.0282,0.028,0.0279,0.0317,0.0321,0.0274,0.0274,0.0273,0,-0.044,-0.0427,-0.0363,-0.0353,-0.0326,-0.0235,-0.0229,-0.0178,-0.0081,-0.005,-0.0024,0.0109,0.0173,0.0231,0.0233,0.0266,0.0294,0.0248,0.0273,0.0273,0.0274,0.0313,0.0318,0.027,0.027,0.027,0.0271,0,-0.0482,-0.0472,-0.0474,-0.0433,-0.0399,-0.0381,-0.0301,-0.0266,-0.0211,-0.0146,-0.0076,0.0024,0.0103,0.0128,0.0182,0.0215,0.0233,0.0264,0.0283,0.0267,0.031,0.0316,0.0264,0.0265,0.0266,0.0267,0,0,-0.0553,-0.0514,-0.0513,-0.0508,-0.0438,-0.0413,-0.0386,-0.0321,-0.0294,-0.0212,-0.0169,-0.0066,-0.0005,0.0042,0.0116,0.0159,0.0195,0.02,0.0204,0.0226,0.0289,0.0339,0.0351,0.0223,0.0223,0.0224,0.0314,0,-0.0601,-0.0617,-0.0573,-0.058,-0.0577,-0.0497,-0.0476,-0.0409,-0.0338,-0.0278,-0.0174,-0.0106,-0.0042,-0.0002,0.0052,0.0173,0.0208,0.0167,0.0312,0.0316,0.0353,0.0359,0.0323,0.0404,0.0321,0.0322,0.0323,0,-0.0645,-0.0649,-0.0674,-0.0646,-0.0637,-0.0629,-0.0572,-0.0538,-0.0434,-0.0377,-0.0294,-0.0202,-0.0104,-0.0056,0.0108,0.0075,0.0164,0.0246,0.0252,0.0332,0.0378,0.0411,0.0419,0.0334,0.0333,0.0332,0.0331,0,-0.0718,-0.0712,-0.074,-0.0731,-0.0689,-0.0686,-0.0659,-0.0573,-0.0541,-0.044,-0.0398,-0.0271,-0.0198,-0.0074,0.011,0.0103,0.0285,0.0304,0.0426,0.043,0.0447,0.0452,0.0394,0.0394,0.0394,0.0393,0.0393,0,-0.0774,-0.079,-0.0782,-0.0794,-0.0819,-0.0764,-0.0762,-0.0708,-0.0632,-0.0591,-0.0461,-0.0395,-0.0202,-0.0061,0.0085,0.0286,0.0269,0.0419,0.046,0.0417,0.0418,0.0397,0.0396,0.0397,0.0396,0.0395,0.0395,0,-0.0834,-0.0831,-0.086,-0.0852,-0.0854,-0.0872,-0.0841,-0.0828,-0.0749,-0.0692,-0.0665,-0.0486,-0.0294,-0.0093,0.0133,0.0261,0.0444,0.0511,0.0446,0.0479,0.0554,0.0548,0.0647,0.0649,0.0651,0.0653,0.0655,0,-0.0863,-0.0889,-0.0916,-0.0942,-0.0942,-0.0958,-0.0962,-0.0898,-0.0874,-0.0736,-0.071,-0.052,-0.0353,0.0001,0.025,0.0511,0.0505,0.0616,0.0606,0.0551,0.0582,0.0572,0.0563,0.059,0.059,0.0591,0.0592,0,-0.0911,-0.0925,-0.0954,-0.1015,-0.1042,-0.1063,-0.1061,-0.1057,-0.0965,-0.0889,-0.0743,-0.06,-0.0255,0.0049,0.0382,0.0521,0.0575,0.064,0.0611,0.0535,0.0507,0.0533,0.0525,0.0598,0.0598,0.0597,0.0597,0.0596,-0.0944,-0.0984,-0.1027,-0.1079,-0.1117,-0.1143,-0.1148,-0.1113,-0.1059,-0.0911,-0.0773,-0.0523,-0.024,0.0249,0.0477,0.0672,0.067,0.0716,0.071,0.0704,0.0685,0.0663,0.0779,0.0779,0.078,0.078,0.078,0,-0.0972,-0.1021,-0.1079,-0.1141,-0.1185,-0.1187,-0.1189,-0.1153,-0.1074,-0.0903,-0.0721,-0.0391,-0.0042,0.0237,0.0567,0.077,0.073,0.0781,0.0696,0.0689,0.0683,0.066,0.0749,0.075,0.075,0.0751,0,0,-0.0991,-0.1054,-0.1086,-0.1171,-0.1213,-0.1237,-0.123,-0.1152,-0.1023,-0.0836,-0.0644,-0.0368,-0.0019,0.021,0.0455,0.0618,0.0594,0.0617,0.0622,0.0486,0.0477,0.0628,0.0584,0,0,0,0,0]}],[{"header":{"parameterUnit":"m.s-1","parameterCategory":2,"la1":30.2991,"la2":30.254,"lo1":-89.0895,"lo2":-89.0444,"dy":0.0017,"dx":0.0017,"nx":28,"ny":28,"refTime":"2023-04-23T21:00:00:Z","depth":"4","parameterNumber":2,"parameterNumberName":"U-component_of_CURRENTS"},"data":[0,0,0,0,0,0,0,0,0,0,0,0,0,0,0,0,0,0,0,0,0,0,0,0,0,0,0,0,0,0,0,0,0,0,0,0,0,0,0,0,0,0,0,0,0,0,0,0,0,0,0,0,0,0,0,0,0,0,-0.1545,-0.1544,0,-0.1485,-0.1484,-0.1484,-0.1428,-0.1428,-0.1427,-0.1426,-0.1437,-0.1438,-0.1439,0,0,0,0,0,0,0,0,0,0,0,0,0,-0.1638,-0.1637,-0.1545,-0.1544,-0.1543,-0.1485,-0.1484,-0.1484,-0.1429,-0.1428,-0.1427,-0.1426,-0.1437,-0.1438,-0.1439,0,0,0,0,0,0,0,0,0,0,0,0,0,-0.1592,-0.1636,-0.1545,-0.1507,-0.1503,-0.1485,-0.1484,-0.1483,-0.1429,-0.1428,-0.1426,-0.1425,-0.1436,-0.1438,-0.1439,-0.1474,0,0,-0.1444,-0.1445,0,0,0,0,0,0,0,0,-0.1594,-0.1588,-0.1514,-0.151,-0.1505,-0.1461,-0.1521,-0.1483,-0.1429,-0.1459,-0.1426,-0.1424,-0.1451,-0.1452,-0.1445,-0.1475,-0.1475,-0.1444,-0.1445,-0.1446,-0.1446,0,0,0,0,0,0,0,-0.1597,-0.1591,-0.1523,-0.1513,-0.1508,-0.1502,-0.1494,-0.1513,-0.1466,-0.1456,-0.1452,-0.1442,-0.145,-0.1443,-0.1445,-0.1476,-0.1444,-0.1446,-0.1447,-0.1447,-0.1603,-0.1606,0,0,0,0,0,0,-0.1601,-0.1594,-0.1525,-0.1521,-0.1545,-0.1501,-0.1492,-0.1478,-0.1464,-0.1459,-0.1444,-0.144,-0.1441,-0.1443,-0.1445,-0.1536,-0.1446,-0.1448,-0.1448,-0.16,-0.1604,-0.1607,0,0,0,0,0,0,-0.1603,-0.1595,-0.1527,-0.1555,-0.1546,-0.1501,-0.1485,-0.1478,-0.1493,-0.1453,-0.145,-0.1469,-0.144,-0.1443,-0.1488,-0.1534,-0.1448,-0.145,-0.1596,-0.1601,-0.1605,-0.1686,0,0,0,0,0,0,-0.1606,-0.1596,-0.1611,-0.1555,-0.1544,-0.1537,-0.1486,-0.1477,-0.1487,-0.1482,-0.1474,-0.1472,-0.1439,-0.1486,-0.149,-0.1535,-0.1451,-0.1592,-0.1598,-0.1604,-0.1679,-0.1693,-0.1704,0,0,0,0,0,-0.161,-0.1631,-0.1611,-0.1604,-0.1557,-0.1538,-0.1534,-0.1498,-0.149,-0.1507,-0.1505,-0.1473,-0.1526,-0.149,-0.1493,-0.154,-0.1589,-0.1597,-0.1603,-0.1674,-0.169,-0.1704,0,0,0,0,0,0,-0.1668,-0.1625,-0.1603,-0.1606,-0.1583,-0.1529,-0.1548,-0.1526,-0.1538,-0.1548,-0.1511,-0.151,-0.1564,-0.1556,-0.1516,-0.1607,-0.1555,-0.1563,-0.1607,-0.1623,-0.1635,-0.1619,-0.1452,0,0,0,0,0,-0.169,-0.17,-0.1648,-0.1654,-0.1651,-0.1611,-0.1608,-0.1585,-0.1574,-0.1577,-0.1571,-0.158,-0.1596,-0.1611,-0.1621,-0.1677,-0.1652,-0.1714,-0.1727,-0.1737,-0.1731,-0.1725,-0.1735,-0.1631,-0.163,-0.163,0,0,-0.1708,-0.1692,-0.1693,-0.167,-0.1653,-0.1662,-0.1608,-0.1618,-0.1632,-0.1583,-0.1629,-0.1627,-0.1622,-0.167,-0.1696,-0.1669,-0.1764,-0.1746,-0.1755,-0.1742,-0.1733,-0.1742,-0.1751,-0.1635,-0.1634,-0.1634,0,0,-0.1744,-0.1744,-0.1758,-0.1759,-0.1748,-0.1729,-0.1743,-0.1716,-0.1716,-0.1756,-0.1724,-0.1739,-0.1784,-0.1762,-0.1764,-0.186,-0.1829,-0.1895,-0.1945,-0.194,-0.1947,-0.1953,-0.1963,-0.1969,-0.1903,-0.1903,-0.1903,0,-0.1762,-0.1768,-0.1762,-0.1783,-0.1789,-0.1768,-0.1785,-0.1795,-0.1788,-0.1797,-0.179,-0.1829,-0.1814,-0.1847,-0.1874,-0.1882,-0.1891,-0.188,-0.1952,-0.1957,-0.1961,-0.197,-0.1975,-0.1907,-0.1907,-0.1906,-0.1906,0,-0.1789,-0.1817,-0.1836,-0.1852,-0.1873,-0.1889,-0.1892,-0.1925,-0.1935,-0.1924,-0.1969,-0.1947,-0.1956,-0.1972,-0.195,-0.1992,-0.1994,-0.1963,-0.1901,-0.1976,-0.1982,-0.1986,-0.1914,-0.1913,-0.1911,-0.191,0,0,-0.1738,-0.183,-0.1834,-0.186,-0.1909,-0.1913,-0.1984,-0.2001,-0.2028,-0.2053,-0.2078,-0.2096,-0.2075,-0.2075,-0.2055,-0.2054,-0.209,-0.2038,-0.2035,-0.2027,-0.2113,-0.1962,-0.1951,-0.2084,-0.2084,-0.2085,-0.2113,0,-0.174,-0.1798,-0.1849,-0.1911,-0.1934,-0.1981,-0.2036,-0.2073,-0.2099,-0.2132,-0.2126,-0.2145,-0.2121,-0.2123,-0.2126,-0.2092,-0.2102,-0.2086,-0.2059,-0.2058,-0.1896,-0.195,-0.2087,-0.2116,-0.2117,-0.2117,-0.2118,0,-0.1719,-0.1766,-0.1828,-0.1927,-0.1941,-0.1991,-0.2063,-0.2107,-0.217,-0.2193,-0.2225,-0.2221,-0.2233,-0.2193,-0.2187,-0.2192,-0.2164,-0.2138,-0.2138,-0.1961,-0.1912,-0.2021,-0.2124,-0.2124,-0.2123,-0.2123,-0.2122,0,-0.1644,-0.1743,-0.1795,-0.1827,-0.1939,-0.1986,-0.2042,-0.212,-0.2149,-0.2224,-0.2247,-0.2279,-0.2274,-0.2267,-0.2214,-0.2217,-0.2197,-0.2182,-0.2028,-0.2019,-0.2108,-0.2101,-0.2174,-0.2174,-0.2174,-0.2174,-0.2174,0,-0.1599,-0.1642,-0.1769,-0.1794,-0.1853,-0.1951,-0.2009,-0.2078,-0.2158,-0.2184,-0.2259,-0.2265,-0.2292,-0.2281,-0.2248,-0.2141,-0.2222,-0.2035,-0.2007,-0.2149,-0.2146,-0.2112,-0.2104,-0.2175,-0.2175,-0.2174,-0.2174,0,-0.1506,-0.1593,-0.1655,-0.1781,-0.1822,-0.1861,-0.198,-0.2013,-0.2113,-0.2153,-0.2177,-0.2257,-0.2244,-0.2249,-0.2221,-0.2143,-0.2076,-0.2018,-0.2188,-0.2169,-0.1907,-0.1904,-0.1866,-0.186,-0.1856,-0.1852,-0.1849,0,-0.1462,-0.1487,-0.162,-0.1653,-0.1715,-0.1792,-0.1841,-0.1967,-0.1998,-0.2117,-0.2115,-0.2157,-0.2185,-0.2036,-0.2067,-0.2006,-0.1967,-0.194,-0.1908,-0.1894,-0.1872,-0.1876,-0.1879,-0.1842,-0.1841,-0.1839,-0.1838,0,-0.1371,-0.1431,-0.1483,-0.155,-0.1613,-0.1667,-0.1748,-0.1758,-0.1889,-0.1995,-0.1981,-0.1968,-0.1952,-0.1931,-0.1887,-0.1843,-0.1963,-0.1893,-0.1902,-0.1872,-0.1865,-0.1848,-0.1856,-0.1823,-0.1825,-0.1826,-0.1827,0,-0.1297,-0.1309,-0.1384,-0.1427,-0.1501,-0.1523,-0.1584,-0.1619,-0.1666,-0.1806,-0.1794,-0.185,-0.1928,-0.1844,-0.1808,-0.1748,-0.172,-0.1658,-0.1679,-0.1697,-0.1622,-0.1588,-0.1432,0,0,0,0,0,-0.1219,-0.1221,-0.1253,-0.1297,-0.1364,-0.1401,-0.1512,-0.1578,-0.1707,-0.1642,-0.1711,-0.1688,-0.1644,-0.1681,-0.1579,-0.1733,-0.173,-0.1609,-0.1673,-0.1736,-0.1754,-0.1679,0,0,0,0,0,0,-0.1164,-0.1197,-0.1208,-0.1179,-0.1177,-0.1233,-0.1297,-0.1389,-0.1362,-0.1495,-0.1475,-0.1567,-0.1545,-0.1656,-0.1533,-0.1541,-0.1543,-0.1648,-0.1643,-0.1726,-0.1743,-0.1757,-0.1685,0,0,0,0,0]},{"header":{"parameterUnit":"m.s-1","parameterCategory":2,"la1":30.2991,"la2":30.254,"lo1":-89.0895,"lo2":-89.0444,"dy":0.0017,"dx":0.0017,"nx":28,"ny":28,"refTime":"2023-04-23T21:00:00:Z","depth":"4","parameterNumber":3,"parameterNumberName":"V-component_of_CURRENTS"},"data":[0,0,0,0,0,0,0,0,0,0,0,0,0,0,0,0,0,0,0,0,0,0,0,0,0,0,0,0,0,0,0,0,0,0,0,0,0,0,0,0,0,0,0,0,0,0,0,0,0,0,0,0,0,0,0,0,0,0,-0.0162,-0.0162,0,-0.0136,-0.0136,-0.0136,-0.0112,-0.0111,-0.011,-0.011,-0.0097,-0.0097,-0.0097,0,0,0,0,0,0,0,0,0,0,0,0,0,-0.0213,-0.0212,-0.0162,-0.0162,-0.0161,-0.0136,-0.0136,-0.0136,-0.0112,-0.0111,-0.011,-0.011,-0.0097,-0.0097,-0.0097,0,0,0,0,0,0,0,0,0,0,0,0,0,-0.0192,-0.0212,-0.0162,-0.0144,-0.0142,-0.0136,-0.0136,-0.0136,-0.0112,-0.0111,-0.011,-0.0109,-0.0097,-0.0097,-0.0097,-0.0114,0,0,-0.0098,-0.0098,0,0,0,0,0,0,0,0,-0.0193,-0.019,-0.0147,-0.0145,-0.0143,-0.0124,-0.0149,-0.0128,-0.0112,-0.0126,-0.011,-0.0109,-0.0106,-0.0105,-0.0106,-0.0114,-0.0113,-0.0098,-0.0098,-0.0098,-0.0098,0,0,0,0,0,0,0,-0.0194,-0.0191,-0.0155,-0.0147,-0.0144,-0.0144,-0.0141,-0.0145,-0.0123,-0.0125,-0.0122,-0.0116,-0.0105,-0.0105,-0.0105,-0.0113,-0.0098,-0.0098,-0.0098,-0.0098,-0.0111,-0.0111,0,0,0,0,0,0,-0.0192,-0.0193,-0.0155,-0.0153,-0.0164,-0.0144,-0.014,-0.0133,-0.0123,-0.0119,-0.0116,-0.0114,-0.0106,-0.0105,-0.0105,-0.011,-0.0098,-0.0098,-0.0098,-0.011,-0.0111,-0.0111,0,0,0,0,0,0,-0.0193,-0.0189,-0.0156,-0.017,-0.0166,-0.0143,-0.0136,-0.0133,-0.0128,-0.0115,-0.0113,-0.0113,-0.0105,-0.0104,-0.0093,-0.011,-0.0098,-0.0098,-0.011,-0.0111,-0.0111,-0.013,0,0,0,0,0,0,-0.0195,-0.019,-0.0193,-0.017,-0.0165,-0.0153,-0.0137,-0.0133,-0.0124,-0.0121,-0.0113,-0.0111,-0.0104,-0.0093,-0.0094,-0.011,-0.0099,-0.011,-0.011,-0.0111,-0.0129,-0.0131,-0.0133,0,0,0,0,0,-0.0197,-0.0205,-0.0193,-0.0189,-0.0167,-0.0153,-0.0152,-0.0135,-0.0124,-0.0127,-0.0109,-0.0111,-0.0096,-0.0093,-0.0094,-0.011,-0.011,-0.011,-0.0111,-0.0128,-0.0131,-0.0132,0,0,0,0,0,0,-0.0234,-0.0202,-0.0189,-0.0188,-0.017,-0.0148,-0.0154,-0.0136,-0.0126,-0.0123,-0.0108,-0.0105,-0.0107,-0.0102,-0.0099,-0.0115,-0.0106,-0.0107,-0.012,-0.0122,-0.0123,-0.0108,-0.0099,0,0,0,0,0,-0.0242,-0.024,-0.0206,-0.021,-0.02,-0.0176,-0.0171,-0.0155,-0.0138,-0.0132,-0.0123,-0.0115,-0.0113,-0.0109,-0.011,-0.0114,-0.0068,-0.0126,-0.0128,-0.013,-0.0117,-0.0045,-0.0038,-0.0112,-0.0112,-0.0112,0,0,-0.0261,-0.0242,-0.0243,-0.0217,-0.0206,-0.0198,-0.0172,-0.0164,-0.0156,-0.0134,-0.0131,-0.0124,-0.0115,-0.0119,-0.012,-0.0114,-0.0086,-0.013,-0.0132,-0.0118,-0.0044,-0.0037,-0.003,-0.0113,-0.0113,-0.0113,0,0,-0.0297,-0.0278,-0.0284,-0.0267,-0.0242,-0.0222,-0.0218,-0.0191,-0.0178,-0.0168,-0.0152,-0.0142,-0.0144,-0.0133,-0.0129,-0.014,-0.0099,-0.0152,-0.0145,-0.0076,-0.0068,-0.0061,0.0005,0.0018,-0.015,-0.015,-0.015,0,-0.0321,-0.0319,-0.0287,-0.0284,-0.0276,-0.0232,-0.0235,-0.0215,-0.0188,-0.0171,-0.017,-0.0142,-0.0149,-0.0128,-0.0139,-0.0144,-0.0091,-0.014,-0.0076,-0.0068,-0.006,0.0006,0.0021,-0.0151,-0.0151,-0.015,-0.015,0,-0.0353,-0.0351,-0.0355,-0.0333,-0.032,-0.0317,-0.0275,-0.0259,-0.0237,-0.0206,-0.0177,-0.0164,-0.0142,-0.0154,-0.0154,-0.0113,-0.0088,-0.0087,-0.0067,-0.0053,0.0015,0.0031,-0.0152,-0.0152,-0.0151,-0.0151,0,0,-0.0399,-0.0382,-0.0383,-0.0382,-0.0343,-0.0336,-0.0316,-0.0278,-0.0254,-0.0218,-0.0183,-0.0179,-0.0149,-0.0141,-0.0133,-0.008,-0.0003,-0.0064,-0.0059,0.0009,0.0166,0.0128,0.0142,0.0021,0.0024,0.0026,0.0192,0,-0.0432,-0.0449,-0.0423,-0.0434,-0.0434,-0.0385,-0.0371,-0.0326,-0.0282,-0.0237,-0.0182,-0.0159,-0.0148,-0.0145,-0.0083,-0.0028,0.004,-0.0047,0.0137,0.0143,0.0113,0.0159,0.0034,0.0204,0.0207,0.021,0.0212,0,-0.0461,-0.0468,-0.0494,-0.0477,-0.0472,-0.0473,-0.0428,-0.0407,-0.0319,-0.0281,-0.0209,-0.016,-0.0086,-0.0086,0.0074,0.0025,0.0096,0.0151,0.0159,0.0145,0.0134,0.0188,0.0242,0.0239,0.0237,0.0235,0.0233,0,-0.0504,-0.0509,-0.0537,-0.0532,-0.051,-0.0511,-0.0496,-0.0426,-0.04,-0.0306,-0.0268,-0.0148,-0.0108,0.0025,0.013,0.0114,0.0317,0.0307,0.0355,0.0353,0.0347,0.0337,0.0438,0.0438,0.0437,0.0437,0.0436,0,-0.0535,-0.0553,-0.0567,-0.0578,-0.0603,-0.0567,-0.0565,-0.0522,-0.0452,-0.0411,-0.0301,-0.0241,-0.0078,0.0052,0.0163,0.0312,0.0353,0.0378,0.0401,0.0332,0.0319,0.0358,0.0347,0.0443,0.0442,0.0441,0.044,0,-0.0566,-0.0577,-0.0609,-0.0618,-0.0627,-0.0645,-0.0629,-0.0612,-0.0542,-0.0482,-0.0456,-0.0297,-0.013,0.0045,0.0248,0.0327,0.048,0.0519,0.0445,0.0457,0.0469,0.0454,0.0611,0.0611,0.0612,0.0612,0.0612,0,-0.058,-0.0605,-0.0652,-0.0682,-0.0694,-0.0716,-0.0722,-0.0669,-0.0641,-0.0516,-0.0484,-0.0319,-0.0201,0.0091,0.0252,0.05,0.0507,0.0593,0.0527,0.0484,0.0491,0.0476,0.0461,0.0612,0.0612,0.0612,0.0612,0,-0.0604,-0.0632,-0.0663,-0.0731,-0.0765,-0.0787,-0.0791,-0.0773,-0.0694,-0.0636,-0.0488,-0.0325,-0.0138,0.0079,0.0265,0.0432,0.0545,0.0595,0.0595,0.0534,0.0487,0.049,0.0476,0.0613,0.0613,0.0613,0.0613,0,-0.0624,-0.0661,-0.0713,-0.0764,-0.0816,-0.0836,-0.0833,-0.078,-0.0739,-0.0593,-0.0553,-0.0329,-0.02,0.0045,0.0221,0.0381,0.0406,0.0439,0.0448,0.0449,0.0332,0.0244,0.0337,0,0,0,0,0,-0.0632,-0.0677,-0.0734,-0.0792,-0.0843,-0.0865,-0.0861,-0.0839,-0.0769,-0.0673,-0.0604,-0.0422,-0.0145,-0.0017,0.0139,0.0199,0.0415,0.0381,0.0452,0.0616,0.0615,0.0499,0,0,0,0,0,0,-0.0642,-0.0705,-0.0735,-0.0799,-0.0839,-0.0883,-0.0882,-0.0836,-0.0764,-0.0675,-0.0521,-0.0415,-0.0143,-0.0238,0.0131,0.0182,0.024,0.0522,0.0524,0.0616,0.0616,0.0615,0.0496,0,0,0,0,0]}]]